GFSNE_con_lsi_336.txt.gz
Lid_Strength_Index
7 7 7 7 7 6 6 7 9 10 9 6 7 4 5 4 4 3 4 3 4 3 3 3 4 4 4 4 3 6 6 5 4 4 -0 0 -0 -1
8 7 7 7 7 7 7 7 7 8 9 7 7 5 5 5 4 4 4 4 3 3 3 3 4 4 4 4 4 3 3 6 6 4 3 1 1 -0
7 6 6 6 7 7 7 7 7 7 8 7 6 5 4 5 4 4 4 4 4 3 3 3 4 4 4 4 4 4 4 3 3 5 5 3 1 1
7 7 7 7 6 6 6 6 6 6 7 8 6 6 5 4 5 4 5 4 4 4 3 4 3 4 4 4 4 4 4 4 3 3 5 5 2 1
7 7 6 6 6 6 6 6 6 6 6 7 7 6 5 5 4 4 4 4 4 4 4 4 4 4 4 4 4 5 5 4 4 4 3 5 5 2
5 5 5 5 5 5 5 5 5 5 5 5 6 6 5 4 4 5 5 5 5 5 4 4 4 4 4 3 3 3 4 5 5 5 5 5 6 4
4 4 4 4 5 5 5 4 4 4 5 5 5 5 5 5 5 5 6 6 4 4 5 4 4 4 3 3 3 3 4 4 5 5 5 5 5 6
3 3 2 3 3 4 4 4 4 4 4 5 5 5 5 5 4 5 5 6 8 3 4 5 3 4 4 3 4 4 4 4 4 4 5 5 4 7
1 2 2 2 2 2 3 3 3 3 3 3 4 4 4 4 4 5 5 6 7 5 4 6 3 5 3 3 4 4 5 5 5 5 5 5 4 5
0 1 1 1 2 3 4 3 3 3 2 3 3 3 4 4 4 5 5 5 5 4 3 7 4 5 3 2 4 4 5 5 5 5 5 5 5 4
0 1 1 2 3 5 4 4 4 3 3 3 3 3 4 4 4 5 6 6 7 5 4 6 5 5 3 3 1 3 4 4 5 5 5 5 5 6
0 1 2 2 5 5 4 4 5 4 4 4 3 4 3 3 3 4 5 8 8 9 6 6 6 5 7 4 0 -0 -0 3 4 5 5 5 6 5
2 2 2 5 5 5 5 4 4 4 4 4 4 4 4 4 4 5 5 8 10 10 8 7 8 8 8 7 3 0 0 1 1 4 6 6 7 4
3 3 2 6 6 5 5 5 5 5 5 5 5 5 5 6 6 6 6 7 8 9 8 8 10 9 9 9 6 1 1 1 3 4 4 6 6 7
3 3 5 5 5 4 4 4 5 4 4 6 6 5 6 6 6 7 7 8 8 8 7 6 7 8 8 7 5 3 4 3 3 4 5 5 5 6
2 3 3 4 4 4 3 3 3 4 4 5 6 6 6 7 8 8 9 10 10 10 8 5 5 6 7 5 3 4 3 5 4 4 5 5 5 5
5 3 3 3 4 4 4 4 4 4 4 5 6 7 7 8 8 8 9 10 11 11 11 7 3 4 3 3 4 4 4 3 3 5 4 7 5 6
5 4 4 4 4 4 5 5 4 5 5 5 6 7 8 8 9 9 9 10 12 11 11 8 6 4 3 3 4 5 4 4 5 4 4 6 7 6
4 4 4 4 4 5 5 5 5 5 4 5 6 7 9 9 10 10 10 10 11 11 10 8 6 7 6 7 5 4 5 4 5 5 4 4 5 5
3 4 4 4 5 5 5 5 5 5 5 6 6 7 9 10 10 10 9 10 11 11 10 8 8 7 7 7 7 6 5 4 5 6 6 6 9 8
4 4 4 4 4 5 5 5 5 6 6 6 6 8 9 10 11 10 10 11 10 10 10 9 7 10 4 4 7 7 7 6 5 6 5 6 5 6
3 3 3 4 4 5 5 5 6 6 6 6 6 7 8 10 11 11 10 10 9 9 9 8 6 6 6 6 8 8 8 7 8 8 7 7 5 7
3 3 3 4 4 5 5 5 6 6 6 7 6 7 8 10 11 11 11 10 9 9 9 8 7 7 7 6 7 7 7 7 7 9 9 8 8 8

GFSNE_con_lsi_339.txt.gz
Lid_Strength_Index
6 6 6 7 6 6 6 7 8 10 9 6 7 3 5 5 4 3 3 3 3 3 3 3 3 4 4 4 4 4 3 3 2 2 5 4 3 -1
7 6 6 6 6 6 7 7 7 8 9 7 7 4 4 5 4 4 4 3 3 3 2 3 3 3 3 4 4 4 4 4 3 3 2 5 5 4
6 7 7 6 7 7 7 7 7 7 8 7 6 4 3 3 3 3 4 3 4 3 3 3 3 4 3 3 3 4 4 4 4 3 3 2 4 4
8 7 7 7 6 5 5 5 5 5 7 7 6 5 4 3 2 3 3 4 4 4 3 4 4 4 4 4 4 4 4 4 4 4 3 3 3 3
6 5 5 5 5 5 5 5 5 5 5 6 6 4 4 3 3 3 2 2 3 2 3 3 3 3 4 4 4 4 5 5 5 5 4 3 3 3
5 5 5 5 5 5 5 5 5 5 5 6 6 5 4 3 3 4 5 4 4 3 2 2 2 2 3 3 3 4 4 5 5 5 5 5 5 4
4 3 3 4 4 5 5 5 4 5 5 5 5 5 5 4 4 4 4 4 3 2 2 2 2 2 2 2 2 3 3 4 5 5 5 5 6 5
3 2 2 2 3 3 3 3 3 4 5 5 5 5 3 3 3 4 4 5 6 3 4 4 2 2 2 1 3 4 5 5 5 6 6 5 6 6
1 0 1 1 1 1 1 2 3 2 2 3 3 3 3 3 3 4 5 5 6 4 4 5 3 3 2 1 3 3 4 5 6 5 6 6 6 6
-0 -0 -0 0 0 2 2 3 3 3 2 2 2 2 3 3 3 4 5 6 5 5 4 7 4 4 3 3 3 3 4 5 5 6 6 6 6 6
-0 -1 -1 0 2 5 3 3 3 3 3 2 3 4 4 4 3 4 6 6 8 7 5 7 6 6 5 4 3 3 4 4 5 5 6 6 6 6
-0 -1 0 1 5 5 4 4 5 4 4 4 3 2 2 2 3 3 4 7 8 10 7 9 8 8 9 6 5 2 2 3 3 5 5 5 6 4
2 1 1 5 5 6 6 4 4 4 4 3 3 3 3 3 3 3 3 6 9 9 7 8 10 10 10 9 7 5 4 4 1 0 4 5 5 4
2 1 1 5 5 5 5 5 5 4 4 3 3 4 4 4 3 4 4 5 6 8 8 8 10 11 11 12 11 7 5 2 0 1 1 3 6 6
2 2 4 5 5 4 4 5 5 3 3 4 4 4 4 3 3 4 5 6 7 7 7 7 9 9 9 10 10 8 6 2 1 1 2 3 4 4
2 3 4 4 4 3 3 3 3 3 4 4 4 4 3 4 6 6 8 8 9 9 7 8 8 8 7 7 8 8 7 4 3 2 3 4 3 3
6 4 4 3 3 3 3 3 3 3 4 4 4 4 5 6 6 7 8 9 10 10 10 9 8 7 6 7 8 7 4 3 3 3 3 4 3 3
5 4 3 3 3 3 4 4 4 4 4 4 4 4 5 6 7 8 8 10 11 11 11 10 9 7 5 5 4 4 3 3 4 4 4 5 5 3
4 3 3 3 3 3 4 4 4 4 4 5 5 5 5 7 8 8 9 10 10 10 10 9 9 7 8 7 4 4 4 4 4 5 4 5 5 5
3 3 3 3 3 3 4 4 4 4 5 5 5 6 6 7 8 9 10 10 11 11 10 9 9 7 8 7 6 5 6 4 4 5 6 6 8 7
2 2 2 2 3 3 3 4 4 5 5 5 6 6 6 7 9 10 10 11 11 10 10 10 9 9 5 5 7 7 6 6 4 6 5 6 5 6
2 2 2 2 2 3 3 4 5 5 5 6 6 6 6 7 9 10 10 11 11 10 9 9 8 7 6 7 7 7 7 6 5 6 6 5 5 7
2 2 2 2 2 3 4 4 5 5 5 6 6 6 6 8 9 10 11 10 10 10 9 9 9 7 7 6 8 8 7 6 6 7 7 7 6 6

GFSNE_con_lsi_342.txt.gz
Lid_Strength_Index
6 6 6 7 6 6 6 7 9 11 11 8 8 5 6 6 5 6 5 3 3 3 3 3 2 3 3 3 4 4 4 4 3 3 2 2 1 3
6 6 6 7 7 7 7 7 8 9 11 8 8 7 6 6 5 6 5 3 3 3 2 3 4 3 4 4 3 3 4 4 4 4 3 3 2 1
7 7 7 6 7 7 7 7 8 8 11 9 7 7 7 7 6 6 6 6 6 3 3 2 3 3 3 3 4 4 4 4 4 4 3 3 3 2
8 7 8 8 7 6 8 7 7 7 7 9 8 7 7 5 6 5 5 5 5 4 4 3 3 3 4 4 4 4 4 4 4 4 3 4 3 3
7 7 7 7 7 7 7 7 7 7 8 9 9 7 6 6 6 5 6 6 5 3 3 3 3 3 3 3 3 4 4 4 5 5 4 4 3 3
6 6 6 6 6 6 7 6 6 7 7 8 8 8 7 6 6 7 7 7 7 5 4 4 3 3 3 3 2 3 4 5 5 5 5 5 5 4
5 5 4 5 3 4 6 6 6 7 8 8 8 7 7 7 7 6 7 7 7 5 6 5 5 5 5 3 3 2 3 3 5 5 5 5 6 6
4 3 2 1 2 2 3 3 3 5 6 7 7 7 6 5 5 6 7 8 9 5 6 7 5 6 5 4 3 3 3 3 4 5 6 6 6 7
2 2 2 2 2 2 2 2 2 2 2 4 6 6 5 5 5 7 7 7 7 6 5 7 5 6 5 4 3 3 3 3 4 4 5 6 6 6
1 1 1 1 0 1 1 2 3 3 3 4 4 4 4 5 6 6 5 6 5 5 4 7 5 6 5 5 3 3 4 4 4 4 4 5 6 6
0 -0 0 0 3 5 4 4 4 4 2 2 2 3 4 4 4 5 6 7 7 7 5 6 7 8 8 7 6 5 5 5 4 4 4 4 6 6
0 0 1 2 5 5 5 5 6 5 5 4 5 4 3 3 2 4 5 7 7 8 5 8 9 9 10 8 8 7 7 5 4 3 3 4 4 5
2 2 2 4 5 5 5 5 5 4 5 5 5 5 4 3 4 4 4 5 6 8 6 8 9 9 10 10 9 8 8 7 6 5 4 4 4 4
3 2 2 5 5 5 5 5 5 4 5 5 5 4 5 4 4 4 4 4 5 7 7 7 9 10 10 11 12 9 8 7 6 5 4 4 4 5
3 3 4 5 5 5 4 4 4 4 4 5 5 5 4 4 4 4 4 5 6 7 7 7 8 9 10 11 11 10 9 8 5 5 3 1 1 3
2 4 4 4 4 4 4 3 3 3 4 5 5 4 4 5 5 5 7 7 8 9 8 7 8 9 10 10 9 9 7 8 5 3 2 1 2 2
5 4 4 4 4 2 3 3 3 3 4 4 5 5 6 6 6 6 7 8 10 11 10 9 8 8 8 7 7 7 8 8 6 5 3 4 3 3
5 5 4 3 3 3 4 4 4 4 4 4 5 5 7 7 7 7 8 9 11 11 11 10 10 9 9 7 4 6 6 5 4 3 4 4 3 3
5 4 3 3 3 3 3 4 4 4 4 4 5 6 6 6 7 8 9 10 11 11 11 10 10 10 11 12 7 5 6 4 4 5 4 4 4 4
4 3 3 2 2 3 3 3 4 4 5 5 6 6 6 7 8 9 10 11 11 11 11 10 10 10 11 11 8 5 8 4 5 6 7 6 7 6
2 2 1 2 2 2 2 3 4 4 5 5 6 6 6 7 8 9 10 12 12 11 12 11 10 11 8 5 7 8 6 6 5 5 5 6 6 6
2 2 2 1 1 2 2 3 4 5 5 6 6 6 7 7 8 10 11 12 12 12 11 10 9 9 8 7 7 7 7 5 5 6 6 4 5 7
2 2 2 2 2 2 2 3 4 5 6 6 6 7 7 8 8 10 11 12 12 12 11 11 10 9 8 7 8 7 7 6 6 7 7 5 5 6

GFSNE_con_lsi_345.txt.gz
Lid_Strength_Index
10 10 11 10 10 10 11 11 12 14 14 12 11 10 9 10 8 9 9 5 2 3 3 2 2 3 3 3 4 4 4 4 4 4 3 3 2 2
10 10 10 10 10 10 10 11 11 12 13 11 11 11 10 8 8 8 8 4 4 4 3 4 4 3 3 3 3 3 4 4 4 4 4 4 3 3
10 10 10 10 10 10 10 10 12 12 13 12 12 11 11 11 10 9 8 9 9 5 4 4 4 4 4 4 4 4 4 4 4 3 4 4 4 3
10 10 9 9 10 10 10 11 12 11 12 11 11 10 11 10 10 10 8 7 9 6 4 4 5 5 5 4 4 4 5 5 4 4 3 3 4 4
9 9 9 8 9 10 10 10 10 9 11 12 11 10 9 8 8 8 8 8 7 5 5 5 5 4 4 4 4 5 5 5 5 5 5 4 4 4
8 8 8 8 8 9 9 10 10 11 10 11 11 10 10 8 8 9 8 9 9 8 7 6 6 6 6 5 5 5 5 5 5 5 5 5 5 5
7 6 6 5 5 6 9 10 9 9 9 10 10 10 9 9 9 8 9 9 9 9 8 8 7 7 7 5 5 5 5 5 6 6 6 6 7 7
8 7 6 4 3 2 2 2 6 8 9 9 10 10 10 9 9 9 10 10 11 8 8 8 6 6 6 5 3 3 3 3 4 4 5 6 7 7
8 6 5 3 2 4 2 1 1 2 3 7 8 9 9 8 9 10 9 9 9 7 7 8 6 7 6 5 3 3 3 3 4 4 4 5 6 7
5 4 4 3 3 2 3 4 5 5 5 5 6 6 7 7 8 8 8 8 7 7 6 9 7 7 5 5 4 3 4 4 4 4 5 5 5 6
3 3 3 3 2 4 6 7 7 7 4 2 2 3 3 4 4 6 7 8 9 8 6 7 7 7 6 7 6 5 5 5 5 5 5 5 5 5
4 4 2 3 5 5 8 8 9 8 8 7 7 6 5 5 3 5 5 8 8 9 6 7 7 8 10 8 8 7 7 6 6 6 6 6 6 5
4 4 4 5 5 6 6 9 8 7 7 8 8 7 6 6 5 6 6 7 8 8 5 6 8 9 10 10 9 8 8 7 7 7 7 7 6 5
4 4 4 5 5 5 5 5 5 5 7 8 8 7 6 6 7 7 6 6 6 6 5 7 9 10 11 11 11 9 8 8 8 8 8 7 6 5
4 3 4 5 5 5 4 4 4 6 7 8 7 7 8 7 7 7 7 7 7 7 6 7 8 9 10 11 11 11 10 8 8 8 7 6 5 4
4 7 5 4 4 4 4 4 5 6 7 8 8 8 8 8 9 8 8 7 8 8 7 7 8 9 11 11 10 11 9 9 7 6 6 6 5 3
7 8 8 7 7 6 5 6 6 6 7 8 8 8 9 9 8 7 8 8 10 10 10 9 9 8 9 10 11 9 9 6 6 6 6 6 4 1
9 9 9 8 7 5 6 6 7 6 7 7 8 8 9 9 9 9 8 10 11 11 11 11 10 11 10 9 7 9 8 7 6 6 6 5 4 2
10 10 8 7 6 5 6 6 7 7 7 8 8 9 9 9 9 9 9 10 11 11 12 11 11 12 13 14 10 7 8 6 6 6 4 4 4 3
9 8 7 6 5 6 6 6 6 7 8 8 8 8 9 9 10 10 10 11 12 12 12 11 11 12 13 14 12 8 6 7 5 6 7 6 7 5
7 7 6 6 6 6 6 6 6 7 8 8 9 9 9 10 11 10 10 12 13 13 13 12 11 11 10 9 8 7 6 6 5 5 5 5 6 6
7 6 5 6 6 6 6 6 7 7 8 8 9 9 10 10 11 10 11 13 13 13 13 11 10 10 10 10 9 8 6 6 5 5 5 5 5 7
6 6 6 6 6 6 6 6 7 7 8 9 9 10 10 11 11 10 11 13 13 13 12 12 11 10 10 9 8 7 7 6 6 7 7 5 6 5